• In Russia
  • List of Countries
  • For 7 days
  • Water Temperature
  • Satellite Maps
  • Weather Map
  • Weather Widgets
  • user-avatar
    Login

    Hourly Weather Reykjavík

    Today, 14 November, Wednesday

    Time Temperature Precipitation Wind Pressure Humidity
    00:00 0°C° 0.1 mm 5 mps 743 mmHg 71%
    01:00 +1°C° 0.1 mm 5 mps 743 mmHg 71%
    02:00 +1°C° 0.1 mm 6 mps 743 mmHg 71%
    03:00 +1°C° 0.1 mm 6 mps 743 mmHg 73%
    04:00 +1°C° 0.1 mm 5 mps 743 mmHg 74%
    05:00 +1°C° 0 mm 5 mps 743 mmHg 71%
    06:00 +1°C° 0.1 mm 5 mps 743 mmHg 75%
    07:00 +1°C° 0.1 mm 5 mps 744 mmHg 79%
    08:00 +1°C° 0.1 mm 4 mps 744 mmHg 83%
    09:00 +1°C° 0 mm 4 mps 745 mmHg 86%
    10:00 +3°C° 0 mm 4 mps 745 mmHg 88%
    11:00 +3°C° 0 mm 4 mps 745 mmHg 88%
    12:00 +3°C° 0 mm 4 mps 745 mmHg 89%
    13:00 +3°C° 0 mm 4 mps 745 mmHg 90%
    14:00 +3°C° 0 mm 4 mps 745 mmHg 91%
    15:00 +3°C° 0 mm 4 mps 745 mmHg 91%
    16:00 +1°C° 0 mm 4 mps 745 mmHg 91%
    17:00 +1°C° 0 mm 4 mps 744 mmHg 91%
    18:00 0°C° 0 mm 4 mps 744 mmHg 89%
    19:00 0°C° 0 mm 4 mps 744 mmHg 87%
    20:00 0°C° 0 mm 4 mps 744 mmHg 86%
    21:00 0°C° 0 mm 4 mps 743 mmHg 81%
    22:00 0°C° 0 mm 5 mps 742 mmHg 77%
    23:00 0°C° 0 mm 5 mps 742 mmHg 73%

    Tomorrow, 15 November, Thursday

    Time Temperature Precipitation Wind Pressure Humidity
    00:00 +1°C° 0.1 mm 5 mps 741 mmHg 74%
    01:00 +1°C° 0.1 mm 6 mps 740 mmHg 74%
    02:00 +1°C° 0.1 mm 6 mps 739 mmHg 75%
    03:00 0°C° 0.1 mm 7 mps 739 mmHg 76%
    04:00 0°C° 0.1 mm 8 mps 738 mmHg 76%
    05:00 0°C° 0.1 mm 9 mps 737 mmHg 77%
    06:00 0°C° 0.1 mm 9 mps 737 mmHg 77%
    07:00 0°C° 0.1 mm 9 mps 736 mmHg 77%
    08:00 0°C° 0.1 mm 9 mps 736 mmHg 77%
    09:00 0°C° 0.1 mm 8 mps 736 mmHg 78%
    10:00 0°C° 0.1 mm 8 mps 737 mmHg 78%
    11:00 0°C° 0.1 mm 8 mps 737 mmHg 79%
    12:00 0°C° 0.1 mm 8 mps 737 mmHg 80%
    13:00 0°C° 0.1 mm 7 mps 738 mmHg 80%
    14:00 0°C° 0.1 mm 7 mps 738 mmHg 81%
    15:00 0°C° 0.1 mm 7 mps 739 mmHg 81%
    16:00 0°C° 0.1 mm 7 mps 740 mmHg 81%
    17:00 0°C° 0.1 mm 7 mps 740 mmHg 82%
    18:00 0°C° 0 mm 7 mps 741 mmHg 82%
    19:00 -1°C° 0 mm 7 mps 742 mmHg 82%
    20:00 -1°C° 0 mm 7 mps 743 mmHg 83%
    21:00 -1°C° 0 mm 6 mps 744 mmHg 83%
    22:00 -1°C° 0 mm 6 mps 744 mmHg 83%
    23:00 -1°C° 0 mm 6 mps 745 mmHg 83%

    Day after tomorrow, 16 November, Friday

    Time Temperature Precipitation Wind Pressure Humidity
    00:00 -2°C° 0 mm 6 mps 746 mmHg 83%
    01:00 -2°C° 0 mm 6 mps 747 mmHg 83%
    02:00 -2°C° 0 mm 6 mps 747 mmHg 82%
    03:00 -2°C° 0 mm 6 mps 748 mmHg 81%
    04:00 -2°C° 0 mm 6 mps 748 mmHg 80%
    05:00 -2°C° 0 mm 6 mps 749 mmHg 79%
    06:00 -2°C° 0 mm 7 mps 749 mmHg 77%
    07:00 -2°C° 0 mm 7 mps 749 mmHg 75%
    08:00 -1°C° 0 mm 8 mps 750 mmHg 73%
    09:00 0°C° 0 mm 9 mps 749 mmHg 74%
    10:00 +1°C° 0 mm 10 mps 749 mmHg 75%
    11:00 +2°C° 0 mm 12 mps 749 mmHg 75%
    12:00 +1°C° 0.6 mm 13 mps 748 mmHg 78%
    13:00 +3°C° 0.6 mm 14 mps 747 mmHg 80%
    14:00 +4°C° 0.6 mm 16 mps 746 mmHg 82%
    15:00 +4°C° 1.5 mm 16 mps 746 mmHg 84%
    16:00 +5°C° 1.5 mm 16 mps 745 mmHg 86%
    17:00 +5°C° 1.5 mm 16 mps 745 mmHg 88%
    18:00 +5°C° 2.6 mm 16 mps 745 mmHg 89%
    19:00 +6°C° 2.6 mm 16 mps 745 mmHg 90%
    20:00 +6°C° 2.6 mm 16 mps 745 mmHg 90%
    21:00 +6°C° 2.5 mm 15 mps 745 mmHg 91%
    22:00 +6°C° 2.5 mm 14 mps 746 mmHg 92%
    23:00 +7°C° 2.5 mm 13 mps 746 mmHg 92%

    17 November, Saturday

    Time Temperature Precipitation Wind Pressure Humidity
    00:00 +7°C° 2 mm 12 mps 747 mmHg 93%
    01:00 +7°C° 2 mm 11 mps 747 mmHg 94%
    02:00 +7°C° 2 mm 9 mps 748 mmHg 95%
    03:00 +7°C° 0.4 mm 9 mps 748 mmHg 95%
    04:00 +7°C° 0.4 mm 8 mps 749 mmHg 96%
    05:00 +7°C° 0.4 mm 8 mps 749 mmHg 96%
    06:00 +7°C° 1.9 mm 8 mps 749 mmHg 96%
    07:00 +7°C° 1.9 mm 8 mps 750 mmHg 96%
    08:00 +7°C° 1.9 mm 8 mps 750 mmHg 96%
    09:00 +7°C° 1.5 mm 8 mps 750 mmHg 96%
    10:00 +7°C° 1.5 mm 8 mps 751 mmHg 96%
    11:00 +7°C° 1.5 mm 8 mps 751 mmHg 96%
    12:00 +7°C° 1.4 mm 9 mps 751 mmHg 96%
    13:00 +7°C° 1.4 mm 9 mps 751 mmHg 96%
    14:00 +7°C° 1.4 mm 9 mps 751 mmHg 95%
    15:00 +7°C° 1.7 mm 10 mps 751 mmHg 95%
    16:00 +7°C° 1.7 mm 10 mps 751 mmHg 95%
    17:00 +8°C° 1.7 mm 10 mps 751 mmHg 95%
    18:00 +8°C° 0.4 mm 10 mps 751 mmHg 95%
    19:00 +8°C° 0.4 mm 11 mps 751 mmHg 95%
    20:00 +8°C° 0.4 mm 11 mps 751 mmHg 94%
    21:00 +7°C° 0.2 mm 12 mps 751 mmHg 94%
    22:00 +7°C° 0.2 mm 12 mps 751 mmHg 93%
    23:00 +7°C° 0.2 mm 13 mps 751 mmHg 93%

    18 November, Sunday

    Time Temperature Precipitation Wind Pressure Humidity
    00:00 +7°C° 0.3 mm 13 mps 751 mmHg 92%
    01:00 +7°C° 0.3 mm 13 mps 752 mmHg 90%
    02:00 +7°C° 0.3 mm 13 mps 752 mmHg 89%
    03:00 +7°C° 0.2 mm 12 mps 753 mmHg 89%
    04:00 +5°C° 0.2 mm 12 mps 753 mmHg 88%
    05:00 +6°C° 0.2 mm 11 mps 754 mmHg 88%
    06:00 +6°C° 0.4 mm 11 mps 754 mmHg 85%
    07:00 +5°C° 0.4 mm 12 mps 755 mmHg 83%
    08:00 +4°C° 0.4 mm 12 mps 756 mmHg 80%
    09:00 +4°C° 0.1 mm 12 mps 757 mmHg 77%
    10:00 +4°C° 0.1 mm 12 mps 758 mmHg 74%
    11:00 +3°C° 0.1 mm 12 mps 759 mmHg 70%
    12:00 +3°C° 0 mm 11 mps 760 mmHg 72%
    13:00 +3°C° 0 mm 11 mps 761 mmHg 73%
    14:00 +3°C° 0 mm 10 mps 762 mmHg 74%
    15:00 +3°C° 0 mm 9 mps 763 mmHg 77%
    16:00 +4°C° 0 mm 8 mps 764 mmHg 79%
    17:00 +4°C° 0 mm 8 mps 765 mmHg 82%
    18:00 +3°C° 0 mm 7 mps 766 mmHg 83%
    19:00 +3°C° 0 mm 6 mps 766 mmHg 84%
    20:00 +3°C° 0 mm 6 mps 767 mmHg 86%
    21:00 +3°C° 0 mm 5 mps 767 mmHg 86%
    22:00 +2°C° 0 mm 5 mps 768 mmHg 86%
    23:00 +3°C° 0 mm 4 mps 768 mmHg 86%

    19 November, Monday

    Time Temperature Precipitation Wind Pressure Humidity
    00:00 +3°C° 0 mm 4 mps 768 mmHg 85%
    01:00 +3°C° 0 mm 4 mps 768 mmHg 85%
    02:00 +3°C° 0 mm 3 mps 768 mmHg 85%
    03:00 +4°C° 0.1 mm 4 mps 768 mmHg 83%
    04:00 +4°C° 0.1 mm 4 mps 768 mmHg 81%
    05:00 +3°C° 0.1 mm 5 mps 768 mmHg 78%
    06:00 +3°C° 0.1 mm 5 mps 768 mmHg 80%
    07:00 +5°C° 0.1 mm 5 mps 769 mmHg 83%
    08:00 +5°C° 0.1 mm 5 mps 769 mmHg 85%
    09:00 +5°C° 0 mm 5 mps 769 mmHg 86%
    10:00 +5°C° 0 mm 5 mps 769 mmHg 88%
    11:00 +5°C° 0 mm 5 mps 769 mmHg 89%
    12:00 +5°C° 0 mm 5 mps 769 mmHg 88%
    13:00 +5°C° 0 mm 5 mps 769 mmHg 88%
    14:00 +5°C° 0 mm 5 mps 769 mmHg 87%
    15:00 +3°C° 0 mm 5 mps 769 mmHg 85%
    16:00 +3°C° 0 mm 5 mps 769 mmHg 84%
    17:00 +3°C° 0 mm 5 mps 769 mmHg 82%
    18:00 +3°C° 0 mm 5 mps 769 mmHg 80%
    19:00 +3°C° 0 mm 5 mps 769 mmHg 78%
    20:00 +3°C° 0 mm 5 mps 769 mmHg 75%
    21:00 +3°C° 0 mm 5 mps 769 mmHg 74%
    22:00 +3°C° 0 mm 6 mps 769 mmHg 72%
    23:00 +3°C° 0 mm 6 mps 769 mmHg 71%
    Show more